Jonesville, VA

8:51 AM EDT on October 22, 2017 (GMT -0400)
Jonesville

Weather History for K0VG - February, 2014

Change the Weather History Date:

Sunday, February 2, 2014

  Actual Average (KLNP) Record (KLNP)
Temperature  
Mean Temperature 38 °F -  
Max Temperature 46 °F 41 °F 64 °F (2016)
Min Temperature 30 °F 25 °F 14 °F (2013)
Degree Days  
Heating Degree Days 27    
Moisture  
Dew Point 38 °F    
Average Humidity 97    
Maximum Humidity 100    
Minimum Humidity 87    
Precipitation  
Precipitation 0.43 in - - ()
Sea Level Pressure  
Sea Level Pressure 30.07 in    
Wind  
Wind Speed 0 mph (North)    
Max Wind Speed 0 mph    
Max Gust Speed -    
Visibility 8 miles    
Events Fog , Rain    
Averages and records for this station are not official NWS values.
T = Trace of Precipitation, MM = Missing Value Source: NWS Daily Summary

Daily Weather History Graph

Daily Weather History Graph

Search for Another Location

Airport or City:

Trip Planner

Search our weather history database for the weather conditions in past years. The results will help you decide how hot, cold, wet, or windy it might be!

Date:

Astronomy

Feb. 02, 2014 Rise Set
Actual Time 7:33 AM EST 5:59 PM EST
Civil Twilight 7:06 AM EST 6:26 PM EST
Nautical Twilight 6:35 AM EST 6:57 PM EST
Astronomical Twilight 6:05 AM EST 7:28 PM EST
Moon 9:06 AM EST (2/2) 9:35 PM EST (2/2)
Length of Visible Light 11h 20m
Length of Day
10h 25m
Waxing Crescent, 11% of the Moon is Illuminated
Feb 2
Waxing Crescent
Feb 6
First Quarter
Feb 14
Full
Feb 22
Last Quarter
Mar 1
New

Hourly Weather History & Observations

Time (EST) Temp. Dew Point Humidity Pressure Visibility Wind Dir Wind Speed Gust Speed Precip Events Conditions
12:35 AM - - N/A% - 10.0 mi Calm Calm - N/A   Clear
1:35 AM - - N/A% 30.08 in 10.0 mi Calm Calm - N/A   Partly Cloudy
1:55 AM 32.0 °F 32.0 °F 100% 30.08 in 18.0 mi North - - N/A   Partly Cloudy
2:55 AM - - N/A% 30.08 in 18.0 mi North - - N/A   Unknown
3:35 AM - - N/A% - 7.0 mi Calm Calm - N/A   Scattered Clouds
3:55 AM 30.2 °F 30.2 °F 100% 30.07 in 8.0 mi Calm Calm - N/A   Mostly Cloudy
4:15 AM 32.0 °F 32.0 °F 100% 30.06 in 8.0 mi Calm Calm - N/A   Mostly Cloudy
4:35 AM 32.0 °F 32.0 °F 100% 30.05 in 8.0 mi Calm Calm - N/A   Overcast
4:55 AM 32.0 °F 32.0 °F 100% 30.06 in 10.0 mi Calm Calm - N/A   Overcast
5:15 AM 32.0 °F 32.0 °F 100% 30.06 in 9.0 mi Calm Calm - N/A   Overcast
5:35 AM 32.0 °F 32.0 °F 100% 30.05 in 10.0 mi Calm Calm - N/A   Overcast
5:55 AM 32.0 °F 32.0 °F 100% 30.05 in 10.0 mi Calm Calm - N/A   Overcast
6:15 AM 32.0 °F 32.0 °F 100% 30.06 in 10.0 mi Calm Calm - N/A   Overcast
6:35 AM 32.0 °F 32.0 °F 100% 30.07 in 10.0 mi Calm Calm - N/A   Overcast
6:55 AM 32.0 °F 32.0 °F 100% 30.06 in 10.0 mi Calm Calm - N/A   Overcast
7:15 AM 33.8 °F 32.0 °F 93% 30.07 in 10.0 mi Calm Calm - N/A   Overcast
7:35 AM 32.0 °F 32.0 °F 100% 30.07 in 10.0 mi Calm Calm - N/A   Overcast
7:55 AM 32.0 °F 32.0 °F 100% 30.08 in 10.0 mi Calm Calm - N/A   Overcast
8:15 AM 33.8 °F 32.0 °F 93% 30.08 in 10.0 mi Calm Calm - N/A   Overcast
8:35 AM 35.6 °F 32.0 °F 87% 30.09 in 10.0 mi Calm Calm - N/A   Overcast
8:55 AM 35.6 °F 33.8 °F 93% 30.10 in 10.0 mi Calm Calm - N/A   Overcast
9:15 AM 37.4 °F 33.8 °F 87% 30.10 in 10.0 mi Calm Calm - N/A   Overcast
9:35 AM 37.4 °F 35.6 °F 93% 30.11 in 10.0 mi Calm Calm - N/A   Overcast
9:55 AM 39.2 °F 35.6 °F 87% 30.11 in 10.0 mi Calm Calm - N/A   Overcast
10:15 AM 39.2 °F 35.6 °F 87% 30.11 in 10.0 mi Calm Calm - N/A   Overcast
10:35 AM 39.2 °F 35.6 °F 87% 30.12 in 10.0 mi Calm Calm - N/A   Overcast
10:55 AM 39.2 °F 35.6 °F 87% 30.13 in 9.0 mi Calm Calm - N/A   Overcast
11:15 AM 39.2 °F 37.4 °F 93% 30.12 in 6.0 mi Calm Calm - N/A   Mostly Cloudy
11:35 AM 39.2 °F 39.2 °F 100% 30.12 in 3.0 mi Calm Calm - N/A Rain Light Rain
11:55 AM 41.0 °F 39.2 °F 93% 30.12 in 8.0 mi Calm Calm - N/A   Mostly Cloudy
12:15 PM 41.0 °F 41.0 °F 100% 30.10 in 4.0 mi Calm Calm - N/A Rain Light Rain
12:35 PM 42.8 °F 42.8 °F 100% 30.09 in 6.0 mi Calm Calm - N/A   Overcast
12:55 PM 44.6 °F 44.6 °F 100% 30.08 in 7.0 mi Calm Calm - N/A   Overcast
1:15 PM 44.6 °F 44.6 °F 100% 30.07 in 7.0 mi Calm Calm - N/A   Overcast
1:35 PM 44.6 °F 44.6 °F 100% 30.07 in 8.0 mi Calm Calm - N/A   Overcast
1:55 PM 46.4 °F 44.6 °F 93% 30.07 in 6.0 mi Calm Calm - N/A   Overcast
2:15 PM 46.4 °F 46.4 °F 100% 30.05 in 5.0 mi Calm Calm - N/A   Overcast
2:35 PM 46.4 °F 46.4 °F 100% 30.05 in 4.0 mi Calm Calm - N/A   Overcast
2:55 PM 46.4 °F 46.4 °F 100% 30.06 in 4.0 mi Calm Calm - N/A   Overcast
3:15 PM 46.4 °F 46.4 °F 100% 30.06 in 2.5 mi Calm Calm - N/A   Overcast
3:35 PM 46.4 °F 46.4 °F 100% 30.06 in 2.5 mi Calm Calm - N/A Rain Light Rain
3:55 PM 46.4 °F 46.4 °F 100% 30.06 in 2.0 mi Calm Calm - N/A   Overcast
4:15 PM 46.4 °F 46.4 °F 100% 30.05 in 2.5 mi Calm Calm - N/A   Overcast
4:55 PM 46.4 °F 46.4 °F 100% - - Calm Calm - N/A Rain Light Rain
5:55 PM - - N/A% 30.05 in 0.5 mi North - - N/A Fog Fog
6:35 PM - - N/A% 30.04 in - North - - N/A Rain Light Rain
8:55 PM 44.6 °F 44.6 °F 100% 30.01 in - North - - 0.12 in Rain Rain
9:35 PM - - N/A% 29.99 in 100.5 mi North - - 0.24 in Rain Heavy Rain
10:15 PM 41.0 °F 41.0 °F 100% 30.02 in 2.0 mi Calm Calm - 0.07 in Rain Rain